Location: Antin
(43.3330°N, 0.2804°E)
Time: 23:47:18
(UTC+00:00)

Cosmos 2084 Rocket - Pass Details

Date: 16 October 2021
Orbit: 508 x 671 km, 62.8° (Epoch: 04 December)

Event Time Altitude Azimuth Distance (km) Brightness Sun altitude
Rises 17:56:01 0° 232° (SW) 2,607 7.8 -8.4°
Reaches altitude 10° 17:58:15 10° 240° (WSW) 1,721 7.0 -8.8°
Maximum altitude 18:01:56 43° 313° (NW) 724 4.3 -9.5°
Drops below altitude 10° 18:05:39 10° 26° (NNE) 1,747 5.6 -10.1°
Enters shadow 18:07:40 - 32° (NNE) 2,543 6.4 -10.5°
